[Iaude] MPEC A122: 2024 AZ2 [a=1.73,e=0.64,i=10.3,H=20.9]
    mpec at marsden.cfa.harvard.edu 
    mpec at marsden.cfa.harvard.edu
       
    Wed Jan 10 22:57:55 EST 2024
    
    
  
M.P.E.C. 2024-A122                             Issued 2024 January 11, 03:56 UT
     The Minor Planet Electronic Circulars contain information on unusual
         minor planets, routine data on comets and natural satellites,
         and occasional editorial announcements.  They are published
    on behalf of Division F of the International Astronomical Union by the
          Minor Planet Center, Smithsonian Astrophysical Observatory,
                          Cambridge, MA 02138, U.S.A.
			  
             Prepared using the Tamkin Foundation Computer Network
                              MPC at CFA.HARVARD.EDU
            URL https://www.minorplanetcenter.net/    ISSN 1523-6714
                                    2024 AZ2                                    
Observations:
     K24A02Z* C2024 01 03.38525606 51 30.030+43 10 46.91         21.67wXEA122F51
     K24A02Z  C2024 01 03.39657906 51 27.791+43 10 59.31         21.84wXEA122F51
     K24A02Z  C2024 01 03.40792806 51 25.575+43 11 11.57         21.61wXEA122F51
     K24A02Z  C2024 01 03.42133606 51 22.931+43 11 25.95         21.50wXEA122F51
     K24A02Z  C2024 01 03.43369806 51 20.523+43 11 39.20         21.43wXEA122F51
     K24A02Z  C2024 01 03.44608306 51 18.057+43 11 52.32         21.53wXEA122F51
     K24A02Z  C2024 01 03.45847606 51 15.627+43 12 05.44         21.84wXEA122F51
     K24A02Z  C2024 01 03.53673206 51 00.206+43 13 27.20         21.46GVEA122F51
     K24A02Z  C2024 01 03.53737506 51 00.085+43 13 27.84         21.99GVEA122F51
     K24A02Z  C2024 01 03.53801606 50 59.954+43 13 28.52         21.93GVEA122F51
     K24A02Z  C2024 01 03.53866006 50 59.829+43 13 29.28         21.74GVEA122F51
     K24A02Z  C2024 01 03.53930606 50 59.713+43 13 29.79         21.88GVEA122F51
     K24A02Z  C2024 01 03.53995206 50 59.530+43 13 30.59         22.23GVEA122F51
     K24A02Z  C2024 01 06.41977606 41 25.340+44 02 59.50         21.73GVEA122F52
     K24A02Z  C2024 01 06.42059306 41 25.169+44 03 00.31         21.63GVEA122F52
     K24A02Z KC2024 01 11.13557106 24 02.617+45 14 43.26         22.05GVEA122I52
     K24A02Z KC2024 01 11.13943306 24 01.699+45 14 45.60         21.71GVEA122I52
     K24A02Z KC2024 01 11.14330006 24 00.655+45 14 49.42         20.94GVEA122I52
     K24A02Z KC2024 01 11.14716106 23 59.665+45 14 54.31         21.35GVEA122I52
Observer details:
F51 Pan-STARRS 1, Haleakala.  Observers J. Herman, T. Lowe, P. Minguez, A.
    Schultz, I. Smith.  Measurers K. Chambers, T. de Boer, J. Fairlamb, H.
    Gao, M. Huber, C.-C. Lin, E. Magnier, Y. Ramanjooloo, R. Wainscoat, R.
    Weryk.  1.8-m Ritchey-Chretien + CCD.
F52 Pan-STARRS 2, Haleakala.  Observers J. Herman, T. Lowe, P. Minguez, A.
    Schultz, I. Smith.  Measurers K. Chambers, T. de Boer, J. Fairlamb, H.
    Gao, M. Huber, C.-C. Lin, E. Magnier, Y. Ramanjooloo, R. Wainscoat, R.
    Weryk.  1.8-m Ritchey-Chretien + CCD.
I52 Steward Observatory, Mt. Lemmon Station.  Observer K. W. Wierzchos.
    Measurers E. C. Beshore, D. Fay, J. B. Fazekas, D. C. Fuls, A. R. Gibbs,
    A. D. Grauer, H. Groeller, J. K. Hogan, R. A. Kowalski, S. M. Larson, G.
    J. Leonard, D. Rankin, R. L. Seaman, F. C. Shelly, K. W. Wierzchos.  1.0-m
    prime focus + CCD.
Orbital elements:
2024 AZ2                                                 Earth MOID = 0.1769 AU
Epoch 2023 Sept. 13.0 TT = JDT 2460200.5                MPC                     
M 262.57515              (2000.0)            P               Q                  
n   0.43403379     Peri.  178.33439     -0.67599554     +0.72434173             
a   1.7276417      Node    49.10643     -0.67815328     -0.53954762             
e   0.6376897      Incl.   10.32575     -0.28833688     -0.42920557             
P   2.27           H   20.96          G   0.15           U   8                  
Residuals in seconds of arc
240103 F51  0.0   0.2-    240103 F51  0.0   0.0     240106 F52  0.0   0.0
240103 F51  0.2-  0.0     240103 F51  0.1+  0.0     240111 I52  0.2+  0.6+
240103 F51  0.0   0.0     240103 F51  0.0   0.0     240111 I52  0.2+  0.4-
240103 F51  0.0   0.0     240103 F51  0.0   0.1+    240111 I52  1.1-  0.1+
240103 F51  0.3+  0.0     240103 F51  0.2+  0.1-    240111 I52 (1.8-  1.7+)
240103 F51  0.0   0.0     240103 F51  0.5-  0.1+
240103 F51  0.1+  0.0     240106 F52  0.0   0.0
Ephemeris:
2024 AZ2                 a,e,i = 1.73, 0.64, 10                  q = 0.6259
Date    TT    R. A. (2000) Decl.     Delta      r    Elong.  Phase     V
2023 12 12    07 36 22.3 +36 25 29   0.9152  1.8193   146.5    17.4    23.0
...
2023 12 27    07 11 54.9 +40 53 39   0.7402  1.6964   159.4    11.8    22.2
...
2024 01 04    06 49 32.0 +43 21 33   0.6694  1.6271   159.4    12.3    21.9
...
2024 01 10    06 28 23.7 +44 58 40   0.6273  1.5734   154.6    15.5    21.8
2024 01 11    06 24 33.5 +45 12 50   0.6212  1.5643   153.6    16.3    21.8
2024 01 12    06 20 38.7 +45 26 18   0.6154  1.5552   152.4    17.0    21.8
...
2024 01 18    05 55 57.7 +46 30 18   0.5855  1.4995   144.5    22.4    21.8
...
2024 01 26    05 22 04.6 +47 05 26   0.5580  1.4229   132.6    30.6    21.8
...
2024 02 10    04 27 44.9 +45 57 23   0.5311  1.2723   110.3    46.7    21.9
A. U. Tomatic                (C) Copyright 2024 MPC           M.P.E.C. 2024-A122
    
    
More information about the Iaude
mailing list